| time (UTC) | temp F | wind direction | speed MPH | gust MPH | rain 1hr in | rain 24hr in | rain mn in | humidity % | barometer mb |
| 20260506061517 | 63 | 256 | 5.0 | 14.0 | 0.00 | 0.00 | 0.00 | 79 | 1023.9 |
| 20260506060517 | 63 | 256 | 6.0 | 14.0 | 0.00 | 0.00 | 0.00 | 80 | 1023.8 |
| 20260506050518 | 64 | 254 | 6.0 | 22.0 | 0.00 | 0.00 | 0.00 | 77 | 1023.5 |
| 20260506044657 | 63 | 254 | 6.0 | 22.0 | 0.00 | 0.00 | 0.00 | 78 | 1023.2 |
| 20260506042518 | 64 | 258 | 6.0 | 22.0 | 0.00 | 0.00 | 0.00 | 79 | 1023.5 |
| 20260506041517 | 64 | 257 | 5.0 | 15.0 | 0.00 | 0.00 | 0.00 | 78 | 1023.9 |
| 20260506040537 | 64 | 285 | 4.0 | 14.0 | 0.00 | 0.00 | 0.00 | 78 | 1024.0 |
| 20260506035516 | 64 | 242 | 3.0 | 8.0 | 0.00 | 0.00 | 0.00 | 77 | 1024.3 |
| 20260506034538 | 64 | 213 | 4.0 | 17.0 | 0.00 | 0.00 | 0.00 | 77 | 1024.5 |
| 20260506033517 | 64 | 262 | 4.0 | 11.0 | 0.00 | 0.00 | 0.00 | 77 | 1024.7 |
| 20260506032516 | 64 | 249 | 4.0 | 12.0 | 0.00 | 0.00 | 0.00 | 77 | 1024.8 |
| 20260506031516 | 64 | 256 | 5.0 | 10.0 | 0.00 | 0.00 | 0.00 | 77 | 1024.9 |
| 20260506030518 | 64 | 32 | 5.0 | 16.0 | 0.00 | 0.00 | 0.00 | 76 | 1024.7 |
| 20260506025517 | 64 | 247 | 5.0 | 15.0 | 0.00 | 0.00 | 0.00 | 77 | 1024.8 |
| 20260506024517 | 64 | 252 | 4.0 | 9.0 | 0.00 | 0.00 | 0.00 | 77 | 1024.7 |
| 20260506023516 | 64 | 267 | 4.0 | 11.0 | 0.00 | 0.00 | 0.00 | 77 | 1024.5 |
| 20260506022538 | 65 | 252 | 4.0 | 13.0 | 0.00 | 0.00 | 0.00 | 76 | 1024.5 |
| 20260506021517 | 65 | 259 | 4.0 | 11.0 | 0.00 | 0.00 | 0.00 | 75 | 1024.8 |
| 20260506020517 | 65 | 337 | 4.0 | 9.0 | 0.00 | 0.00 | 0.00 | 75 | 1024.7 |
| 20260506015516 | 65 | 283 | 5.0 | 11.0 | 0.00 | 0.00 | 0.00 | 75 | 1024.8 |
| 20260506014517 | 65 | 239 | 5.0 | 13.0 | 0.00 | 0.00 | 0.00 | 74 | 1024.8 |
| 20260506013517 | 65 | 242 | 7.0 | 22.0 | 0.00 | 0.00 | 0.00 | 73 | 1025.1 |
| 20260506012517 | 65 | 248 | 5.0 | 14.0 | 0.00 | 0.00 | 0.00 | 74 | 1025.3 |
| 20260506011516 | 65 | 227 | 5.0 | 20.0 | 0.00 | 0.00 | 0.00 | 73 | 1025.3 |
| 20260506010517 | 65 | 213 | 5.0 | 18.0 | 0.00 | 0.00 | 0.00 | 73 | 1025.3 |
| 20260506005517 | 65 | 239 | 5.0 | 22.0 | 0.00 | 0.00 | 0.00 | 74 | 1025.7 |
| 20260506004537 | 65 | 258 | 2.0 | 6.0 | 0.00 | 0.00 | 0.00 | 75 | 1025.8 |
| 20260506003516 | 65 | 30 | 6.0 | 20.0 | 0.00 | 0.00 | 0.00 | 74 | 1026.1 |
| 20260506002518 | 64 | 275 | 2.0 | 6.0 | 0.00 | 0.00 | 0.00 | 75 | 1026.1 |
| 20260506001517 | 64 | 225 | 7.0 | 22.0 | 0.00 | 0.00 | 0.00 | 75 | 1026.1 |
| 20260506000517 | 64 | 228 | 6.0 | 16.0 | 0.00 | 0.00 | 0.00 | 76 | 1026.3 |
| 20260505235516 | 64 | 185 | 5.0 | 17.0 | 0.00 | 0.00 | 0.00 | 76 | 1026.4 |
| 20260505234518 | 64 | 165 | 4.0 | 16.0 | 0.00 | 0.00 | 0.00 | 77 | 1026.4 |
| 20260505233517 | 63 | 260 | 5.0 | 12.0 | 0.00 | 0.00 | 0.00 | 77 | 1026.1 |
| 20260505232516 | 63 | 285 | 4.0 | 10.0 | 0.00 | 0.00 | 0.00 | 78 | 1026.6 |
| 20260505231516 | 63 | 259 | 4.0 | 16.0 | 0.00 | 0.00 | 0.00 | 78 | 1026.6 |
| 20260505230538 | 63 | 254 | 4.0 | 12.0 | 0.00 | 0.00 | 0.00 | 78 | 1026.9 |
| 20260505225517 | 63 | 91 | 7.0 | 16.0 | 0.00 | 0.00 | 0.00 | 78 | 1026.9 |
| 20260505224516 | 63 | 274 | 4.0 | 14.0 | 0.00 | 0.00 | 0.00 | 78 | 1026.8 |
| 20260505222517 | 63 | 125 | 4.0 | 12.0 | 0.00 | 0.00 | 0.00 | 78 | 1026.8 |
| 20260505221517 | 63 | 176 | 5.0 | 13.0 | 0.00 | 0.00 | 0.00 | 79 | 1026.7 |
| 20260505220536 | 62 | 118 | 4.0 | 9.0 | 0.00 | 0.00 | 0.00 | 81 | 1026.8 |
| 20260505215518 | 62 | 65 | 3.0 | 13.0 | 0.00 | 0.00 | 0.00 | 81 | 1026.9 |
| 20260505212516 | 62 | 242 | 3.0 | 9.0 | 0.00 | 0.00 | 0.00 | 80 | 1027.2 |
| 20260505211518 | 61 | 147 | 4.0 | 9.0 | 0.00 | 0.00 | 0.00 | 80 | 1027.0 |
| 20260505210658 | 62 | 210 | 3.0 | 8.0 | 0.00 | 0.00 | 0.00 | 79 | 1027.1 |
| 20260505205517 | 61 | 109 | 3.0 | 10.0 | 0.00 | 0.00 | 0.00 | 80 | 1027.1 |
| 20260505204516 | 61 | 164 | 3.0 | 7.0 | 0.00 | 0.00 | 0.00 | 80 | 1027.3 |
| 20260505203518 | 62 | 198 | 4.0 | 9.0 | 0.00 | 0.00 | 0.00 | 80 | 1027.3 |
| 20260505202517 | 62 | 117 | 2.0 | 5.0 | 0.00 | 0.00 | 0.00 | 80 | 1027.2 |
| 20260505201517 | 61 | 251 | 2.0 | 8.0 | 0.00 | 0.00 | 0.00 | 81 | 1027.1 |
| 20260505200536 | 62 | 248 | 4.0 | 11.0 | 0.00 | 0.00 | 0.00 | 79 | 1026.9 |
| 20260505195518 | 62 | 197 | 5.0 | 14.0 | 0.00 | 0.00 | 0.00 | 78 | 1027.1 |
| 20260505194517 | 62 | 226 | 3.0 | 6.0 | 0.00 | 0.00 | 0.00 | 77 | 1027.0 |
| 20260505193517 | 62 | 232 | 5.0 | 11.0 | 0.00 | 0.00 | 0.00 | 77 | 1026.9 |
| 20260505192517 | 62 | 230 | 4.0 | 11.0 | 0.00 | 0.00 | 0.00 | 77 | 1027.0 |
| 20260505191518 | 62 | 260 | 3.0 | 9.0 | 0.00 | 0.00 | 0.00 | 77 | 1026.9 |
| 20260505190537 | 61 | 146 | 5.0 | 16.0 | 0.00 | 0.00 | 0.00 | 78 | 1026.7 |
| 20260505185517 | 61 | 116 | 3.0 | 6.0 | 0.00 | 0.00 | 0.00 | 77 | 1026.9 |
| 20260505184516 | 61 | 257 | 2.0 | 6.0 | 0.00 | 0.00 | 0.00 | 78 | 1027.1 |
| 20260505183518 | 61 | 240 | 2.0 | 6.0 | 0.00 | 0.00 | 0.00 | 77 | 1026.9 |
| 20260505182537 | 61 | 248 | 4.0 | 11.0 | 0.00 | 0.00 | 0.00 | 77 | 1027.2 |
| 20260505181516 | 61 | 254 | 4.0 | 9.0 | 0.00 | 0.00 | 0.00 | 76 | 1027.3 |
| 20260505180516 | 61 | 271 | 5.0 | 18.0 | 0.00 | 0.00 | 0.00 | 75 | 1027.4 |
| 20260505175517 | 61 | 65 | 2.0 | 6.0 | 0.00 | 0.00 | 0.00 | 75 | 1027.2 |
| 20260505174517 | 61 | 213 | 5.0 | 12.0 | 0.00 | 0.00 | 0.00 | 75 | 1027.3 |
| 20260505173536 | 60 | 346 | 4.0 | 9.0 | 0.00 | 0.00 | 0.00 | 76 | 1027.5 |
| 20260505172518 | 60 | 278 | 3.0 | 11.0 | 0.00 | 0.00 | 0.00 | 76 | 1027.4 |
| 20260505171517 | 60 | 139 | 4.0 | 10.0 | 0.00 | 0.00 | 0.00 | 75 | 1027.4 |
| 20260505170517 | 61 | 208 | 3.0 | 7.0 | 0.00 | 0.00 | 0.00 | 74 | 1027.5 |
| 20260505165518 | 61 | 211 | 4.0 | 20.0 | 0.00 | 0.00 | 0.00 | 74 | 1027.4 |
| 20260505164518 | 60 | 243 | 3.0 | 9.0 | 0.00 | 0.00 | 0.00 | 74 | 1027.6 |
| 20260505163517 | 61 | 232 | 3.0 | 8.0 | 0.00 | 0.00 | 0.00 | 73 | 1027.5 |
| 20260505162516 | 60 | 157 | 3.0 | 9.0 | 0.00 | 0.00 | 0.00 | 73 | 1027.7 |
| 20260505161518 | 61 | 103 | 2.0 | 15.0 | 0.00 | 0.00 | 0.00 | 72 | 1027.7 |
| 20260505160517 | 61 | 234 | 4.0 | 12.0 | 0.00 | 0.00 | 0.00 | 71 | 1027.7 |
| 20260505152517 | 61 | 238 | 3.0 | 8.0 | 0.00 | 0.00 | 0.00 | 70 | 1027.7 |
| 20260505151516 | 61 | 231 | 3.0 | 7.0 | 0.00 | 0.00 | 0.00 | 70 | 1028.0 |
| 20260505150516 | 61 | 221 | 4.0 | 16.0 | 0.00 | 0.00 | 0.00 | 69 | 1028.0 |
| 20260505140516 | 61 | 253 | 4.0 | 12.0 | 0.00 | 0.00 | 0.00 | 69 | 1028.7 |
| 20260505124518 | 61 | 240 | 4.0 | 17.0 | 0.00 | 0.00 | 0.00 | 67 | 1029.2 |
| 20260505123518 | 61 | 232 | 3.0 | 11.0 | 0.00 | 0.00 | 0.00 | 66 | 1029.2 |
| 20260505122517 | 61 | 266 | 4.0 | 8.0 | 0.00 | 0.00 | 0.00 | 66 | 1029.1 |
| 20260505121516 | 60 | 137 | 4.0 | 13.0 | 0.00 | 0.00 | 0.00 | 67 | 1029.1 |
| 20260505120518 | 60 | 165 | 4.0 | 9.0 | 0.00 | 0.00 | 0.00 | 67 | 1029.2 |
| 20260505115517 | 60 | 187 | 3.0 | 6.0 | 0.00 | 0.00 | 0.00 | 66 | 1029.2 |
| 20260505114517 | 60 | 187 | 4.0 | 15.0 | 0.00 | 0.00 | 0.00 | 65 | 1029.2 |
| 20260505113516 | 60 | 201 | 3.0 | 10.0 | 0.00 | 0.00 | 0.00 | 65 | 1029.3 |
| 20260505112517 | 60 | 226 | 2.0 | 6.0 | 0.00 | 0.00 | 0.00 | 65 | 1029.3 |
| 20260505111657 | 60 | 9 | 3.0 | 6.0 | 0.00 | 0.00 | 0.00 | 64 | 1029.5 |
| 20260505110517 | 60 | 213 | 4.0 | 13.0 | 0.00 | 0.00 | 0.00 | 64 | 1029.6 |
| 20260505101517 | 60 | 227 | 4.0 | 17.0 | 0.00 | 0.00 | 0.00 | 64 | 1029.8 |
| 20260505100517 | 60 | 265 | 3.0 | 15.0 | 0.00 | 0.00 | 0.00 | 64 | 1029.7 |
| 20260505095517 | 60 | 243 | 4.0 | 13.0 | 0.00 | 0.00 | 0.00 | 65 | 1029.8 |
| 20260505094518 | 60 | 239 | 4.0 | 12.0 | 0.00 | 0.00 | 0.00 | 64 | 1029.8 |
| 20260505093538 | 60 | 235 | 4.0 | 11.0 | 0.00 | 0.00 | 0.00 | 64 | 1029.8 |
| 20260505092517 | 59 | 247 | 4.0 | 10.0 | 0.00 | 0.00 | 0.00 | 65 | 1029.8 |
| 20260505091536 | 59 | 248 | 4.0 | 13.0 | 0.00 | 0.00 | 0.00 | 65 | 1029.7 |
| 20260505090518 | 59 | 240 | 4.0 | 15.0 | 0.00 | 0.00 | 0.00 | 66 | 1029.4 |
| 20260505085517 | 59 | 234 | 4.0 | 14.0 | 0.00 | 0.00 | 0.00 | 66 | 1029.5 |
| 20260505084537 | 59 | 245 | 4.0 | 16.0 | 0.00 | 0.00 | 0.00 | 66 | 1029.7 |
| 20260505083516 | 59 | 254 | 4.0 | 14.0 | 0.00 | 0.00 | 0.00 | 66 | 1029.9 |
| 20260505082517 | 59 | 268 | 4.0 | 16.0 | 0.00 | 0.00 | 0.00 | 66 | 1029.9 |
| 20260505081517 | 59 | 4.0 | 13.0 | 0.00 | 0.00 | 0.00 | 66 | 1029.9 | |
| 20260505080516 | 59 | 67 | 3.0 | 9.0 | 0.00 | 0.00 | 0.00 | 66 | 1029.9 |
| 20260505075518 | 59 | 211 | 4.0 | 15.0 | 0.00 | 0.00 | 0.00 | 65 | 1030.0 |
| 20260505074517 | 59 | 242 | 4.0 | 18.0 | 0.00 | 0.00 | 0.00 | 66 | 1029.9 |
| 20260505073517 | 59 | 325 | 5.0 | 15.0 | 0.00 | 0.00 | 0.00 | 67 | 1030.2 |
| 20260505072518 | 59 | 58 | 2.0 | 7.0 | 0.00 | 0.00 | 0.00 | 67 | 1030.4 |
| 20260505071517 | 59 | 39 | 3.0 | 10.0 | 0.00 | 0.00 | 0.00 | 67 | 1030.3 |
| 20260505070517 | 58 | 132 | 4.0 | 16.0 | 0.00 | 0.00 | 0.00 | 69 | 1030.4 |
| 20260505065516 | 58 | 153 | 3.0 | 7.0 | 0.00 | 0.00 | 0.00 | 69 | 1030.4 |
| 20260505064518 | 58 | 40 | 3.0 | 7.0 | 0.00 | 0.00 | 0.00 | 69 | 1030.4 |
| 20260505063517 | 58 | 68 | 3.0 | 8.0 | 0.00 | 0.00 | 0.00 | 69 | 1030.4 |